Location: Unspecified
(0.0000°N, 0.0000°E)
Time: 17:26:52
(UTC+01:00)

Cosmos 1733 Rocket - Visible Passes

Search period start: 31 October 2014 00:00
Search period end: 10 November 2014 00:00
Orbit: 604 x 631 km, 82.5° (Epoch: 31 October)

Date Brightness Start Highest point End Pass type
(mag) Time Alt. Az. Time Alt. Az. Time Alt. Az.
31 Oct 4.7 05:40:18 10° SSE 05:44:21 37° E 05:48:21 10° NNE visible
01 Nov 3.1 05:56:48 10° S 06:01:12 87° E 06:05:32 10° N visible
02 Nov 3.5 06:13:57 10° SSW 06:18:03 39° W 06:22:05 10° NNW visible
03 Nov 5.9 04:54:31 10° SE 04:57:20 17° E 05:00:08 10° NE visible
04 Nov 4.5 05:10:09 10° SSE 05:14:12 37° E 05:18:11 10° NNE visible
05 Nov 3.0 05:26:40 10° S 05:31:02 88° E 05:35:22 10° N visible
06 Nov 3.5 05:43:49 10° SSW 05:47:53 38° W 05:51:54 10° NNW visible
07 Nov 5.8 04:24:20 10° SE 04:27:10 17° E 04:29:58 10° NE visible
07 Nov 4.5 06:01:50 10° SW 06:04:42 17° W 06:07:34 10° NW visible
08 Nov 4.4 04:39:59 10° SSE 04:44:01 37° E 04:46:44 18° NE visible
09 Nov 3.1 04:56:30 10° S 05:00:23 71° S 05:00:23 71° S visible
